Location: Chipmunk Meadow
(41.1540°N, 122.8814°W)
Time: 13:49:08
(UTC+00:00)

Lacrosse 5 - Pass Details

Date: 13 April 2024
Orbit: 714 x 724 km, 57.0° (Epoch: 09 March)

Event Time Altitude Azimuth Distance (km) Brightness Sun altitude
Exits shadow 12:31:21 - 299° (WNW) 2,963 4.7 -12.1°
Reaches altitude 10° 12:34:23 10° 322° (NW) 2,220 4.2 -11.5°
Maximum altitude 12:36:59 14° 352° (N) 1,968 4.3 -11.1°
Drops below altitude 10° 12:39:35 10° 23° (NNE) 2,220 5.1 -10.6°
Sets 12:43:13 0° 49° (NE) 3,141 6.8 -10.0°
